Hourly Weather Kozlowiec

Today, 24 October, Saturday

Time Temperature Precipitation Wind Pressure Humidity
00:00 +12°C° 0 mm 3 mps 744 mmHg 82%
01:00 +12°C° 0 mm 3 mps 744 mmHg 83%
02:00 +12°C° 0.5 mm 4 mps 744 mmHg 86%
03:00 +12°C° 0.5 mm 4 mps 744 mmHg 89%
04:00 +12°C° 0.5 mm 4 mps 744 mmHg 91%
05:00 +12°C° 0.3 mm 4 mps 744 mmHg 92%
06:00 +13°C° 0.3 mm 4 mps 744 mmHg 93%
07:00 +13°C° 0.3 mm 4 mps 745 mmHg 93%
08:00 +13°C° 0 mm 4 mps 745 mmHg 87%
09:00 +14°C° 0 mm 4 mps 746 mmHg 80%
10:00 +14°C° 0 mm 4 mps 746 mmHg 73%
11:00 +15°C° 0 mm 4 mps 746 mmHg 71%
12:00 +16°C° 0 mm 3 mps 747 mmHg 69%
13:00 +17°C° 0 mm 3 mps 747 mmHg 67%
14:00 +16°C° 0 mm 3 mps 747 mmHg 70%
15:00 +16°C° 0 mm 2 mps 747 mmHg 73%
16:00 +15°C° 0 mm 2 mps 747 mmHg 77%
17:00 +15°C° 0 mm 2 mps 747 mmHg 81%
18:00 +14°C° 0 mm 2 mps 747 mmHg 86%
19:00 +13°C° 0 mm 2 mps 748 mmHg 91%
20:00 +13°C° 0 mm 2 mps 748 mmHg 91%
21:00 +12°C° 0 mm 2 mps 748 mmHg 91%
22:00 +12°C° 0 mm 2 mps 748 mmHg 91%
23:00 +12°C° 0 mm 2 mps 748 mmHg 92%

Tomorrow, 25 October, Sunday

Time Temperature Precipitation Wind Pressure Humidity
00:00 +10°C° 0 mm 2 mps 748 mmHg 92%
01:00 +10°C° 0 mm 2 mps 748 mmHg 92%
02:00 +10°C° 0 mm 2 mps 748 mmHg 92%
03:00 +11°C° 0 mm 1 mps 748 mmHg 92%
04:00 +11°C° 0 mm 1 mps 748 mmHg 92%
05:00 +11°C° 0 mm 1 mps 748 mmHg 92%
06:00 +10°C° 0 mm 2 mps 748 mmHg 93%
07:00 +9°C° 0 mm 2 mps 748 mmHg 93%
08:00 +12°C° 0 mm 2 mps 748 mmHg 86%
09:00 +14°C° 0 mm 2 mps 748 mmHg 80%
10:00 +15°C° 0 mm 2 mps 748 mmHg 73%
11:00 +16°C° 0 mm 2 mps 748 mmHg 69%
12:00 +17°C° 0 mm 2 mps 747 mmHg 64%
13:00 +18°C° 0 mm 3 mps 747 mmHg 60%
14:00 +17°C° 0 mm 3 mps 747 mmHg 66%
15:00 +16°C° 0 mm 3 mps 746 mmHg 71%
16:00 +14°C° 0 mm 3 mps 746 mmHg 77%
17:00 +13°C° 0 mm 3 mps 746 mmHg 79%
18:00 +13°C° 0 mm 4 mps 746 mmHg 81%
19:00 +12°C° 0 mm 4 mps 746 mmHg 83%
20:00 +12°C° 0 mm 4 mps 745 mmHg 85%
21:00 +11°C° 0 mm 3 mps 745 mmHg 86%
22:00 +11°C° 0 mm 3 mps 745 mmHg 87%
23:00 +11°C° 0 mm 3 mps 745 mmHg 89%

Day after tomorrow, 26 October, Monday

Time Temperature Precipitation Wind Pressure Humidity
00:00 +11°C° 0 mm 3 mps 744 mmHg 91%
01:00 +11°C° 0 mm 3 mps 744 mmHg 92%
02:00 +11°C° 0 mm 3 mps 744 mmHg 93%
03:00 +11°C° 0 mm 3 mps 744 mmHg 93%
04:00 +11°C° 0 mm 3 mps 743 mmHg 93%
05:00 +11°C° 0 mm 3 mps 743 mmHg 94%
06:00 +11°C° 0 mm 3 mps 743 mmHg 94%
07:00 +12°C° 0 mm 2 mps 743 mmHg 94%
08:00 +13°C° 0 mm 2 mps 743 mmHg 87%
09:00 +13°C° 0 mm 3 mps 743 mmHg 81%
10:00 +14°C° 0 mm 3 mps 743 mmHg 75%
11:00 +16°C° 0 mm 3 mps 742 mmHg 72%
12:00 +17°C° 0 mm 3 mps 742 mmHg 69%
13:00 +18°C° 0 mm 3 mps 742 mmHg 66%
14:00 +17°C° 0.1 mm 3 mps 742 mmHg 69%
15:00 +17°C° 0.1 mm 3 mps 742 mmHg 72%
16:00 +16°C° 0.1 mm 3 mps 741 mmHg 75%
17:00 +16°C° 0 mm 3 mps 742 mmHg 75%
18:00 +15°C° 0 mm 4 mps 742 mmHg 74%
19:00 +14°C° 0 mm 5 mps 742 mmHg 74%
20:00 +14°C° 0 mm 4 mps 742 mmHg 75%
21:00 +14°C° 0 mm 4 mps 742 mmHg 77%
22:00 +14°C° 0 mm 3 mps 742 mmHg 78%
23:00 +13°C° 0 mm 3 mps 742 mmHg 80%

, 27 October, Tuesday

Time Temperature Precipitation Wind Pressure Humidity
00:00 +13°C° 0 mm 3 mps 742 mmHg 82%
01:00 +14°C° 0 mm 2 mps 742 mmHg 83%
02:00 +14°C° 0 mm 2 mps 742 mmHg 83%
03:00 +14°C° 0 mm 2 mps 743 mmHg 83%
04:00 +14°C° 0 mm 2 mps 743 mmHg 83%
05:00 +14°C° 0 mm 2 mps 743 mmHg 83%
06:00 +13°C° 0 mm 2 mps 743 mmHg 84%
07:00 +12°C° 0 mm 3 mps 743 mmHg 84%
08:00 +13°C° 0 mm 3 mps 743 mmHg 78%
09:00 +14°C° 0 mm 3 mps 743 mmHg 73%
10:00 +17°C° 0 mm 4 mps 744 mmHg 68%
11:00 +18°C° 0 mm 4 mps 744 mmHg 62%
12:00 +19°C° 0 mm 4 mps 744 mmHg 57%
13:00 +20°C° 0 mm 5 mps 744 mmHg 52%
14:00 +19°C° 0 mm 4 mps 743 mmHg 57%
15:00 +18°C° 0 mm 4 mps 743 mmHg 62%
16:00 +17°C° 0 mm 3 mps 743 mmHg 67%
17:00 +16°C° 0 mm 3 mps 744 mmHg 70%
18:00 +16°C° 0 mm 3 mps 744 mmHg 73%
19:00 +14°C° 0 mm 3 mps 744 mmHg 77%
20:00 +13°C° 0 mm 3 mps 744 mmHg 79%
21:00 +13°C° 0 mm 3 mps 745 mmHg 81%
22:00 +13°C° 0 mm 3 mps 745 mmHg 83%
23:00 +13°C° 0 mm 2 mps 745 mmHg 86%

27 October, Tuesday

Time Temperature Precipitation Wind Pressure Humidity
00:00 +13°C° 0 mm 3 mps 742 mmHg 82%
01:00 +14°C° 0 mm 2 mps 742 mmHg 83%
02:00 +14°C° 0 mm 2 mps 742 mmHg 83%
03:00 +14°C° 0 mm 2 mps 743 mmHg 83%
04:00 +14°C° 0 mm 2 mps 743 mmHg 83%
05:00 +14°C° 0 mm 2 mps 743 mmHg 83%
06:00 +13°C° 0 mm 2 mps 743 mmHg 84%
07:00 +12°C° 0 mm 3 mps 743 mmHg 84%
08:00 +13°C° 0 mm 3 mps 743 mmHg 78%
09:00 +14°C° 0 mm 3 mps 743 mmHg 73%
10:00 +17°C° 0 mm 4 mps 744 mmHg 68%
11:00 +18°C° 0 mm 4 mps 744 mmHg 62%
12:00 +19°C° 0 mm 4 mps 744 mmHg 57%
13:00 +20°C° 0 mm 5 mps 744 mmHg 52%
14:00 +19°C° 0 mm 4 mps 743 mmHg 57%
15:00 +18°C° 0 mm 4 mps 743 mmHg 62%
16:00 +17°C° 0 mm 3 mps 743 mmHg 67%
17:00 +16°C° 0 mm 3 mps 744 mmHg 70%
18:00 +16°C° 0 mm 3 mps 744 mmHg 73%
19:00 +14°C° 0 mm 3 mps 744 mmHg 77%
20:00 +13°C° 0 mm 3 mps 744 mmHg 79%
21:00 +13°C° 0 mm 3 mps 745 mmHg 81%
22:00 +13°C° 0 mm 3 mps 745 mmHg 83%
23:00 +13°C° 0 mm 2 mps 745 mmHg 86%

28 October, Wednesday

Time Temperature Precipitation Wind Pressure Humidity
00:00 +13°C° 0 mm 2 mps 745 mmHg 89%
01:00 +12°C° 0 mm 2 mps 746 mmHg 92%
02:00 +12°C° 0 mm 2 mps 746 mmHg 93%
03:00 +10°C° 0 mm 2 mps 746 mmHg 93%
04:00 +10°C° 0 mm 2 mps 746 mmHg 94%
05:00 +10°C° 0 mm 1 mps 747 mmHg 94%
06:00 +10°C° 0 mm 1 mps 747 mmHg 94%
07:00 +10°C° 0 mm 1 mps 747 mmHg 94%
08:00 +11°C° 0 mm 1 mps 747 mmHg 88%
09:00 +12°C° 0 mm 1 mps 747 mmHg 82%
10:00 +13°C° 0 mm 2 mps 747 mmHg 75%
11:00 +14°C° 0 mm 2 mps 747 mmHg 74%
12:00 +15°C° 0 mm 2 mps 747 mmHg 72%
13:00 +15°C° 0 mm 2 mps 747 mmHg 70%
14:00 +15°C° 0 mm 2 mps 747 mmHg 73%
15:00 +15°C° 0 mm 2 mps 747 mmHg 76%
16:00 +14°C° 0 mm 1 mps 747 mmHg 79%
17:00 +14°C° 0 mm 2 mps 747 mmHg 81%
18:00 +14°C° 0 mm 2 mps 747 mmHg 83%
19:00 +13°C° 0 mm 2 mps 747 mmHg 85%
20:00 +13°C° 0 mm 2 mps 747 mmHg 87%
21:00 +12°C° 0 mm 2 mps 747 mmHg 88%
22:00 +11°C° 0 mm 3 mps 747 mmHg 90%
23:00 +11°C° 0 mm 3 mps 747 mmHg 89%

29 October, Thursday

Time Temperature Precipitation Wind Pressure Humidity
00:00 +11°C° 0 mm 3 mps 747 mmHg 88%
01:00 +10°C° 0 mm 3 mps 747 mmHg 86%
02:00 +10°C° 0 mm 3 mps 747 mmHg 86%
03:00 +9°C° 0 mm 2 mps 747 mmHg 86%
04:00 +9°C° 0 mm 2 mps 747 mmHg 85%
05:00 +9°C° 0 mm 2 mps 747 mmHg 83%
06:00 +9°C° 0 mm 3 mps 748 mmHg 81%
07:00 +9°C° 0 mm 3 mps 748 mmHg 78%
08:00 +10°C° 0 mm 3 mps 748 mmHg 73%
09:00 +12°C° 0 mm 4 mps 748 mmHg 68%
10:00 +13°C° 0 mm 4 mps 748 mmHg 62%
11:00 +14°C° 0 mm 5 mps 748 mmHg 61%
12:00 +15°C° 0 mm 5 mps 748 mmHg 59%
13:00 +15°C° 0 mm 6 mps 748 mmHg 57%
14:00 +15°C° 0 mm 5 mps 749 mmHg 60%
15:00 +14°C° 0 mm 4 mps 749 mmHg 63%
16:00 +13°C° 0 mm 3 mps 749 mmHg 66%
17:00 +12°C° 0 mm 3 mps 749 mmHg 69%
18:00 +12°C° 0 mm 3 mps 750 mmHg 72%
19:00 +11°C° 0 mm 3 mps 750 mmHg 75%
20:00 +10°C° 0 mm 3 mps 750 mmHg 78%
21:00 +10°C° 0 mm 3 mps 751 mmHg 80%
22:00 +10°C° 0 mm 3 mps 751 mmHg 82%
23:00 +9°C° 0 mm 3 mps 751 mmHg 84%
Show more